Location: Lafig�re
(44.4503°N, 4.0357°E)
Time: 14:39:34
(UTC+00:00)

Explorer 7 - Visible Passes

Search period start: 23 January 2021 00:00
Search period end: 02 February 2021 00:00
Orbit: 484 x 678 km, 50.3° (Epoch: 22 January)

Date Brightness Start Highest point End Pass type
(mag) Time Alt. Az. Time Alt. Az. Time Alt. Az.
23 Jan 8.4 04:30:07 31° E 04:30:07 31° E 04:32:35 10° ENE visible
23 Jan 7.1 06:06:25 17° W 06:09:15 48° NNW 06:13:16 10° ENE visible
24 Jan 8.2 04:34:45 35° ENE 04:34:45 35° ENE 04:37:14 10° ENE visible
24 Jan 7.4 06:11:03 15° WNW 06:13:56 40° N 06:17:53 10° ENE visible
25 Jan 8.0 04:39:18 36° NE 04:39:18 36° NE 04:41:49 10° ENE visible
25 Jan 7.6 06:15:36 14° WNW 06:18:40 36° N 06:22:32 10° ENE visible
26 Jan 8.0 04:43:46 36° NE 04:43:46 36° NE 04:46:23 10° ENE visible
26 Jan 7.7 06:20:04 12° WNW 06:23:25 35° N 06:27:15 10° ENE visible
27 Jan 7.9 04:48:12 35° NNE 04:48:12 35° NNE 04:50:58 10° ENE visible
27 Jan 7.7 06:24:30 10° WNW 06:28:09 36° N 06:32:01 10° ENE visible
28 Jan 7.9 04:52:35 34° NNE 04:52:35 34° NNE 04:55:34 10° ENE visible
28 Jan 7.6 06:29:08 10° WNW 06:32:52 39° N 06:36:50 10° E visible
29 Jan 7.8 04:56:56 34° N 04:56:56 34° N 05:00:14 10° ENE visible
30 Jan 7.7 05:01:17 34° N 05:01:17 34° N 05:04:58 10° ENE visible
31 Jan 7.6 05:05:37 35° N 05:06:00 35° N 05:09:45 10° ENE visible
01 Feb 7.5 05:09:58 36° NNW 05:10:43 40° NNE 05:14:33 10° E visible
